Weather History for Port Angeles, WA

Change the Weather History Date:

Monday, August 12, 2013

  Actual Average Record
Temperature  
Mean Temperature 60 °F -  
Max Temperature 69 °F 69 °F 88 °F (1977)
Min Temperature 53 °F 52 °F 46 °F (1951)
Degree Days  
Heating Degree Days 6    
Growing Degree Days 10 (Base 50)    
Moisture  
Dew Point 53 °F    
Average Humidity 79    
Maximum Humidity 93    
Minimum Humidity 63    
Precipitation  
Precipitation 0.00 in - - ()
Sea Level Pressure  
Sea Level Pressure 30.06 in    
Wind  
Wind Speed 7 mph (WNW)    
Max Wind Speed 14 mph    
Max Gust Speed 21 mph    
Visibility 10 miles    
Events      
Averages and records for this station are not official NWS values.
T = Trace of Precipitation, MM = Missing Value Source: NWS Daily Summary

Daily Weather History Graph

Daily Weather History Graph

Search for Another Location

Airport:

Trip Planner

Search our weather history database for the weather conditions in past years. The results will help you decide how hot, cold, wet, or windy it might be!

Date:

Astronomy

Aug. 12, 2013 Rise Set
Actual Time 6:04 AM PDT 8:32 PM PDT
Civil Twilight 5:30 AM PDT 9:06 PM PDT
Nautical Twilight 4:46 AM PDT 9:50 PM PDT
Astronomical Twilight 3:55 AM PDT 10:39 PM PDT
Moon 12:34 PM PDT (8/12) 10:54 PM PDT (8/12)
Length of Visible Light 15h 36m
Length of Day
14h 27m
Waxing Crescent, 32% of the Moon is Illuminated
Aug 12
Waxing Crescent
Aug 14
First Quarter
Aug 20
Full
Aug 28
Last Quarter
Sep 5
New

Hourly Weather History & Observations

Time (PDT) Temp. Dew Point Humidity Pressure Visibility Wind Dir Wind Speed Gust Speed Precip Events Conditions
12:53 AM 55.0 °F 52.0 °F 89% 30.04 in 10.0 mi WNW 5.8 mph - N/A   Mostly Cloudy
1:53 AM 54.0 °F 52.0 °F 93% 30.03 in 10.0 mi NW 5.8 mph - N/A   Clear
2:53 AM 53.1 °F 51.1 °F 93% 30.03 in 10.0 mi WNW 4.6 mph - N/A   Clear
3:53 AM 55.0 °F 52.0 °F 89% 30.04 in 10.0 mi West 5.8 mph - N/A   Clear
4:53 AM 55.9 °F 53.1 °F 90% 30.05 in 10.0 mi West 5.8 mph - N/A   Overcast
5:53 AM 57.0 °F 53.1 °F 87% 30.05 in 10.0 mi West 8.1 mph - N/A   Overcast
6:53 AM 57.9 °F 53.1 °F 84% 30.05 in 10.0 mi West 6.9 mph - N/A   Overcast
7:53 AM 59.0 °F 54.0 °F 83% 30.06 in 10.0 mi WNW 3.5 mph - N/A   Overcast
8:53 AM 61.0 °F 53.1 °F 75% 30.06 in 10.0 mi WNW 5.8 mph - N/A   Overcast
9:53 AM 60.1 °F 54.0 °F 80% 30.08 in 10.0 mi NNW 4.6 mph - N/A   Mostly Cloudy
10:53 AM 62.1 °F 54.0 °F 75% 30.08 in 10.0 mi Variable 4.6 mph - N/A   Overcast
11:53 AM 64.9 °F 54.0 °F 68% 30.08 in 10.0 mi Variable 6.9 mph - N/A   Mostly Cloudy
12:53 PM 64.9 °F 54.0 °F 68% 30.07 in 10.0 mi NW 10.4 mph - N/A   Clear
1:53 PM 64.9 °F 54.0 °F 68% 30.07 in 10.0 mi NW 11.5 mph - N/A   Clear
2:53 PM 66.0 °F 53.1 °F 63% 30.08 in 10.0 mi NNW 10.4 mph - N/A   Mostly Cloudy
3:53 PM 66.0 °F 54.0 °F 65% 30.06 in 10.0 mi WNW 13.8 mph - N/A   Clear
4:53 PM 64.0 °F 53.1 °F 67% 30.06 in 10.0 mi NW 11.5 mph 20.7 mph N/A   Partly Cloudy
5:53 PM 63.0 °F 53.1 °F 70% 30.05 in 10.0 mi NW 10.4 mph - N/A   Scattered Clouds
6:53 PM 62.1 °F 53.1 °F 72% 30.06 in 10.0 mi WNW 12.7 mph - N/A   Clear
7:53 PM 61.0 °F 53.1 °F 75% 30.06 in 10.0 mi West 10.4 mph - N/A   Clear
8:53 PM 57.9 °F 52.0 °F 81% 30.06 in 10.0 mi West 10.4 mph - N/A   Clear
9:53 PM 57.0 °F 53.1 °F 87% 30.07 in 10.0 mi West 11.5 mph - N/A   Clear
10:53 PM 57.0 °F 53.1 °F 87% 30.08 in 10.0 mi West 8.1 mph - N/A   Clear
11:53 PM 57.0 °F 53.1 °F 87% 30.08 in 10.0 mi West 8.1 mph - N/A   Clear